Location: Asheville, NC
(35.6000°N, 82.5500°W)
Time: 06:09:16
(UTC-04:00)

Vanguard 2 Rocket - Pass Details

Date: 10 February 2018
Orbit: 554 x 3327 km, 32.9° (Epoch: 19 May)

Event Time Altitude Azimuth Distance (km) Brightness Sun altitude
Exits shadow 01:24:23 28° 90° (E) 4,846 10.4 -66.9°
Drops below altitude 10° 01:31:31 10° 80° (E) 6,046 11.2 -66.3°
Sets 01:35:56 0° 76° (ENE) 6,862 11.6 -65.8°
